Estación de Huelquen

Ultimos registro cada 15 minutos 30
Estación Fecha / Hora Temperatura Humedad Lluvia Velocidad Dirección Radiación Presion
30 Huelquen 04-05-2026 07:15 11,1 81 0 0 197 0 1015,5
29 Huelquen 04-05-2026 07:00 11,1 80 0 0 197 0 1015,5
28 Huelquen 04-05-2026 06:45 11,1 80 0 0 197 0 1015,3
27 Huelquen 04-05-2026 06:30 11,2 79 0 0 197 0 1015,2
26 Huelquen 04-05-2026 06:15 10,9 79 0 0 197 0 1015,2
25 Huelquen 04-05-2026 06:00 10,8 80 0 0 197 0 1015,1
24 Huelquen 04-05-2026 05:45 10,8 79 0 0 197 0 1015,2
23 Huelquen 04-05-2026 05:30 11,1 80 0 0 197 0 1015,2
22 Huelquen 04-05-2026 05:15 11,1 79 0 0 197 0 1015,2
21 Huelquen 04-05-2026 05:00 11,2 79 0 0 197 0 1015,3
20 Huelquen 04-05-2026 04:45 11,3 79 0 0 197 0 1015,2
19 Huelquen 04-05-2026 04:30 11,3 79 0 0 197 0 1015
18 Huelquen 04-05-2026 04:15 11,3 79 0 0 197 0 1014,8
17 Huelquen 04-05-2026 04:00 11,3 79 0 0 197 0 1015
16 Huelquen 04-05-2026 03:45 11,4 79 0 0 197 0 1015,2
15 Huelquen 04-05-2026 03:30 11,5 79 0 0 197 0 1015,6
14 Huelquen 04-05-2026 03:15 11,7 78 0 0 197 0 1015,6
13 Huelquen 04-05-2026 03:00 11,8 78 0 0 197 0 1016
12 Huelquen 04-05-2026 02:45 11,8 77 0 0 197 0 1016,1
11 Huelquen 04-05-2026 02:30 12,1 77 0 0 197 0 1015,9
10 Huelquen 04-05-2026 02:15 12,2 77 0 0 197 0 1016
9 Huelquen 04-05-2026 02:00 12,2 76 0 0 197 0 1015,9
8 Huelquen 04-05-2026 01:45 12,1 75 0 0 197 0 1016,1
7 Huelquen 04-05-2026 01:30 12,1 76 0 0 197 0 1016,3
6 Huelquen 04-05-2026 01:15 12 77 0 0 197 0 1016,6
5 Huelquen 04-05-2026 01:00 12,1 78 0 0 197 0 1017
4 Huelquen 04-05-2026 00:45 12,3 77 0 0 197 0 1017,2
3 Huelquen 04-05-2026 00:30 12,3 77 0 0 197 0 1017,1
2 Huelquen 04-05-2026 00:15 12,6 77 0 0 197 0 1017
1 Huelquen 04-05-2026 00:00 12,7 76 0 0 197 0 1017,2